Location: Dreilärchen
(47.9312°N, 8.6113°E)
Time: 19:56:51
(UTC+00:00)

Cosmos 1674 Rocket - Pass Details

Date: 26 May 2022
Orbit: 603 x 629 km, 82.5° (Epoch: 02 July)

Event Time Altitude Azimuth Distance (km) Brightness Sun altitude
Exits shadow 00:07:01 52° 214° (SW) 761 3.6 -20.3°
Maximum altitude 00:07:59 73° 280° (W) 640 3.5 -20.2°
Drops below altitude 10° 00:12:19 10° 6° (N) 1,964 7.3 -20.1°
Sets 00:14:33 0° 8° (N) 2,870 8.6 -20.0°
